Holdrege, NE

11:21 PM CDT on April 19, 2018 (GMT -0500)
Brewster

Weather History for KHDE - November, 2012

Change the Weather History Date:

Thursday, November 15, 2012

  Actual Average Record
Temperature  
Mean Temperature 43 °F -  
Max Temperature 59 °F 49 °F 72 °F (1965)
Min Temperature 27 °F 25 °F 5 °F (2000)
Degree Days  
Heating Degree Days 22    
Moisture  
Dew Point 25 °F    
Average Humidity 47    
Maximum Humidity 71    
Minimum Humidity 28    
Precipitation  
Precipitation 0.00 in - - ()
Sea Level Pressure  
Sea Level Pressure 30.29 in    
Wind  
Wind Speed 7 mph (NNE)    
Max Wind Speed 20 mph    
Max Gust Speed 26 mph    
Visibility 10 miles    
Events      
Averages and records for this station are not official NWS values.
T = Trace of Precipitation, MM = Missing Value Source: NWS Daily Summary

Daily Weather History Graph

Daily Weather History Graph

Search for Another Location

Airport or City:

Astronomy

Nov. 15, 2012 Rise Set
Actual Time 7:24 AM CST 5:19 PM CST
Civil Twilight 6:54 AM CST 5:48 PM CST
Nautical Twilight 6:21 AM CST 6:21 PM CST
Astronomical Twilight 5:49 AM CST 6:54 PM CST
Moon 9:21 AM CST (11/15) 7:12 PM CST (11/15)
Length of Visible Light 10h 53m
Length of Day
9h 55m
Waxing Crescent, 5% of the Moon is Illuminated
Nov 15
Waxing Crescent
Nov 20
First Quarter
Nov 28
Full
Dec 6
Last Quarter
Dec 13
New

Hourly Weather History & Observations

Time (CST) Temp. Windchill Dew Point Humidity Pressure Visibility Wind Dir Wind Speed Gust Speed Precip Events Conditions
12:15 AM 43.5 °F 39.4 °F 26.1 °F 50% 30.14 in 10.0 mi SW 6.9 mph - N/A   Clear
12:35 AM 43.3 °F 39.2 °F 26.1 °F 51% 30.15 in 10.0 mi SW 6.9 mph - N/A   Clear
12:55 AM 43.7 °F 40.3 °F 26.1 °F 50% 30.15 in 10.0 mi SW 5.8 mph - N/A   Clear
1:15 AM 43.2 °F 39.7 °F 25.7 °F 50% 30.15 in 10.0 mi WNW 5.8 mph - N/A   Clear
1:35 AM 43.0 °F 41.3 °F 25.3 °F 50% 30.15 in 10.0 mi WNW 3.5 mph - N/A   Clear
1:55 AM 41.5 °F 39.6 °F 24.8 °F 51% 30.15 in 10.0 mi WSW 3.5 mph - N/A   Clear
2:15 AM 41.5 °F - 24.8 °F 51% 30.15 in 10.0 mi Calm Calm - N/A   Scattered Clouds
2:35 AM 41.5 °F 37.8 °F 24.8 °F 51% 30.15 in 10.0 mi SW 5.8 mph - N/A   Clear
2:55 AM 41.4 °F 38.4 °F 24.8 °F 52% 30.14 in 10.0 mi SW 4.6 mph - N/A   Clear
3:15 AM 40.8 °F - 24.6 °F 53% 30.15 in 10.0 mi Calm Calm - N/A   Clear
3:35 AM 43.0 °F 41.3 °F 24.4 °F 48% 30.15 in 10.0 mi WNW 3.5 mph - N/A   Clear
3:55 AM 41.9 °F 40.0 °F 24.4 °F 50% 30.15 in 10.0 mi NNW 3.5 mph - N/A   Clear
4:15 AM 40.5 °F 36.5 °F 24.6 °F 53% 30.15 in 10.0 mi North 5.8 mph - N/A   Scattered Clouds
4:35 AM 40.1 °F 34.1 °F 25.5 °F 56% 30.16 in 10.0 mi North 9.2 mph - N/A   Mostly Cloudy
4:55 AM 40.1 °F - 25.7 °F 56% 30.16 in 10.0 mi Calm Calm - N/A   Mostly Cloudy
5:15 AM 40.1 °F 38.0 °F 25.7 °F 56% 30.17 in 10.0 mi ESE 3.5 mph - N/A   Scattered Clouds
5:35 AM 39.2 °F - 25.9 °F 59% 30.18 in 10.0 mi Calm Calm - N/A   Scattered Clouds
5:55 AM 39.2 °F - 26.1 °F 59% 30.19 in 10.0 mi Calm Calm - N/A   Scattered Clouds
6:15 AM 39.0 °F 36.8 °F 25.9 °F 59% 30.19 in 10.0 mi North 3.5 mph - N/A   Scattered Clouds
6:35 AM 40.1 °F 36.9 °F 25.7 °F 56% 30.20 in 10.0 mi NNW 4.6 mph - N/A   Clear
6:55 AM 41.0 °F 36.4 °F 25.7 °F 55% 30.21 in 10.0 mi NNW 6.9 mph - N/A   Scattered Clouds
7:15 AM 41.5 °F 37.1 °F 25.3 °F 53% 30.22 in 10.0 mi NNW 6.9 mph - N/A   Scattered Clouds
7:35 AM 42.8 °F 38.6 °F 24.8 °F 49% 30.23 in 10.0 mi North 6.9 mph - N/A   Clear
7:55 AM 43.7 °F 39.1 °F 24.8 °F 47% 30.23 in 10.0 mi North 8.1 mph - N/A   Clear
8:15 AM 43.7 °F 38.6 °F 25.7 °F 49% 30.25 in 10.0 mi North 9.2 mph - N/A   Clear
8:35 AM 44.8 °F 38.7 °F 26.1 °F 48% 30.27 in 10.0 mi North 12.7 mph 16.1 mph N/A   Scattered Clouds
8:55 AM 45.5 °F 38.6 °F 27.0 °F 48% 30.27 in 10.0 mi North 16.1 mph - N/A   Clear
9:15 AM 45.1 °F 38.4 °F 27.5 °F 50% 30.28 in 10.0 mi NNE 15.0 mph - N/A   Clear
9:35 AM 45.7 °F 39.5 °F 27.9 °F 50% 30.29 in 10.0 mi NNE 13.8 mph - N/A   Clear
9:55 AM 46.8 °F - 28.8 °F 50% 30.29 in 10.0 mi NNE 13.8 mph - N/A   Clear
10:15 AM 51.4 °F - 28.4 °F 41% 30.30 in 10.0 mi NNE 16.1 mph - N/A   Clear
10:35 AM 52.3 °F - 27.9 °F 39% 30.31 in 10.0 mi NNE 17.3 mph 23.0 mph N/A   Clear
10:55 AM 54.1 °F - 27.1 °F 35% 30.32 in 10.0 mi NE 18.4 mph - N/A   Clear
11:15 AM 54.9 °F - 26.1 °F 33% 30.32 in 10.0 mi NE 17.3 mph - N/A   Clear
11:35 AM 57.4 °F - 25.3 °F 29% 30.32 in 10.0 mi NE 18.4 mph 24.2 mph N/A   Clear
11:55 AM 57.4 °F - 24.3 °F 28% 30.32 in 10.0 mi NE 19.6 mph - N/A   Clear
12:15 PM 57.4 °F - 25.3 °F 29% 30.32 in 10.0 mi NNE 19.6 mph 26.5 mph N/A   Clear
12:35 PM 58.3 °F - 25.9 °F 29% 30.32 in 10.0 mi NNE 13.8 mph 21.9 mph N/A   Clear
12:55 PM 57.6 °F - 26.1 °F 30% 30.32 in 10.0 mi NNE 13.8 mph - N/A   Clear
1:15 PM 58.1 °F - 26.1 °F 29% 30.31 in 10.0 mi NE 13.8 mph - N/A   Clear
1:35 PM 58.5 °F - 26.4 °F 29% 30.31 in 10.0 mi NE 15.0 mph 19.6 mph N/A   Clear
1:55 PM 59.0 °F - 26.6 °F 29% 30.31 in 10.0 mi NNE 13.8 mph 18.4 mph N/A   Clear
2:15 PM 58.8 °F - 26.1 °F 29% 30.31 in 10.0 mi NE 12.7 mph 19.6 mph N/A   Clear
2:35 PM 59.0 °F - 26.6 °F 29% 30.31 in 10.0 mi NE 13.8 mph - N/A   Clear
2:55 PM 59.0 °F - 25.9 °F 28% 30.31 in 10.0 mi NE 10.4 mph - N/A   Clear
3:15 PM 58.8 °F - 25.9 °F 28% 30.31 in 10.0 mi NE 10.4 mph - N/A   Clear
3:35 PM 58.5 °F - 25.7 °F 29% 30.32 in 10.0 mi NE 11.5 mph - N/A   Clear
3:55 PM 58.1 °F - 25.7 °F 29% 30.32 in 10.0 mi NE 12.7 mph 16.1 mph N/A   Clear
4:15 PM 57.2 °F - 25.3 °F 29% 30.33 in 10.0 mi ENE 10.4 mph - N/A   Clear
4:35 PM 55.9 °F - 25.5 °F 31% 30.34 in 10.0 mi NE 9.2 mph - N/A   Clear
4:55 PM 53.4 °F - 25.2 °F 33% 30.34 in 10.0 mi NE 6.9 mph - N/A   Clear
5:15 PM 48.7 °F - 24.6 °F 39% 30.35 in 10.0 mi NE 6.9 mph - N/A   Clear
5:35 PM 45.5 °F 41.8 °F 23.4 °F 42% 30.35 in 10.0 mi NE 6.9 mph - N/A   Clear
5:55 PM 42.8 °F 38.6 °F 22.3 °F 44% 30.36 in 7.0 mi NE 6.9 mph - N/A   Clear
6:15 PM 41.0 °F 36.4 °F 22.8 °F 48% 30.37 in 10.0 mi NE 6.9 mph - N/A   Clear
6:35 PM 41.9 °F 37.5 °F 22.6 °F 46% 30.37 in 10.0 mi NE 6.9 mph - N/A   Clear
6:55 PM 40.8 °F 35.6 °F 23.0 °F 49% 30.38 in 10.0 mi ENE 8.1 mph - N/A   Clear
7:15 PM 37.0 °F 32.4 °F 21.7 °F 54% 30.39 in 10.0 mi NE 5.8 mph - N/A   Clear
7:35 PM 37.6 °F 32.3 °F 22.1 °F 54% 30.39 in 3.0 mi NE 6.9 mph - N/A   Haze
7:55 PM 36.5 °F 30.3 °F 21.9 °F 56% 30.39 in 2.5 mi NE 8.1 mph - N/A   Haze
8:15 PM 34.2 °F 29.0 °F 21.4 °F 60% 30.40 in 2.0 mi NE 5.8 mph - N/A   Haze
8:35 PM 38.3 °F 35.9 °F 23.9 °F 56% 30.40 in 10.0 mi ENE 3.5 mph - N/A   Clear
8:55 PM 36.3 °F 32.5 °F 23.4 °F 59% 30.40 in 10.0 mi NE 4.6 mph - N/A   Clear
9:15 PM 34.7 °F 29.6 °F 21.9 °F 60% 30.40 in 10.0 mi ENE 5.8 mph - N/A   Clear
9:35 PM 34.5 °F 29.4 °F 22.8 °F 62% 30.41 in 10.0 mi ENE 5.8 mph - N/A   Clear
9:55 PM 33.1 °F - 21.7 °F 63% 30.42 in 10.0 mi Calm Calm - N/A   Clear
10:15 PM 31.8 °F 28.5 °F 21.2 °F 65% 30.42 in 10.0 mi NE 3.5 mph - N/A   Clear
10:35 PM 31.3 °F - 20.8 °F 65% 30.42 in 10.0 mi Calm Calm - N/A   Clear
10:55 PM 27.3 °F 22.0 °F 18.3 °F 69% 30.42 in 10.0 mi NNE 4.6 mph - N/A   Clear
11:15 PM 30.9 °F 27.5 °F 22.5 °F 71% 30.42 in 10.0 mi NE 3.5 mph - N/A   Clear
11:35 PM 32.2 °F 27.7 °F 22.5 °F 67% 30.42 in 10.0 mi ENE 4.6 mph - N/A   Clear
11:55 PM 29.7 °F 26.1 °F 20.8 °F 70% 30.42 in 10.0 mi ENE 3.5 mph - N/A   Clear